Location: Darmstadt
(49.8706°N, 8.6494°E)
Time: 07:32:19
(UTC+01:00)

ARGOS - Pass Details

Date: 31 October 2020
Orbit: 819 x 835 km, 98.4° (Epoch: 03 December)

Event Time Altitude Azimuth Distance (km) Brightness Sun altitude
Exits shadow 20:21:32 29° 219° (SW) 1,485 4.6 -32.1°
Maximum altitude 20:23:33 40° 263° (W) 1,224 4.3 -32.4°
Drops below altitude 10° 20:28:39 10° 333° (NNW) 2,458 6.1 -33.2°
Sets 20:31:11 0° 341° (NNW) 3,397 6.8 -33.6°
